Temp
14 14 14 14 14 14 14 14 14 14 14 14 14 14 14 14 14 13 13 13 12 12 11 11 11 11 11 11 11 11 11 10 10 10 10 10 10 10 10 9 9 9 9 8 8 8 8 7 7 7 7 6 6 6 5 5 5 5 4 4 4 4 4 3 3 3 3 3 3
14 14 14 14 14 14 14 14 14 14 14 14 14 14 14 14 14 13 13 12 12 12 11 11 11 11 11 11 11 10 10 10 10 10 10 10 10 9 9 9 9 9 8 8 8 7 7 7 7 6 6 6 6 5 5 5 4 4 4 4 4 4 3 3 3 3 3 3 3
14 14 14 14 14 14 14 14 14 14 14 14 14 14 14 14 13 13 13 12 12 12 11 11 11 11 11 11 10 10 10 10 10 10 10 10 9 9 9 9 8 8 8 8 7 7 7 7 6 6 6 5 5 5 5 4 4 4 4 4 4 3 3 3 3 3 3 3 2
14 14 14 14 14 14 14 14 14 14 14 14 14 14 14 13 13 13 13 12 12 11 11 11 11 11 10 10 10 10 10 10 10 10 10 9 9 9 9 8 8 8 7 7 7 7 6 6 6 6 5 5 5 5 4 4 4 4 4 4 4 3 3 3 3 3 3 2 2
14 14 14 14 14 14 14 14 14 14 14 14 14 14 13 13 13 13 12 12 12 11 11 11 11 10 10 10 10 10 10 10 10 9 9 9 9 9 8 8 8 7 7 7 6 6 6 6 5 5 5 5 5 4 4 4 4 4 4 4 3 3 3 3 3 3 2 2 2
14 14 14 14 14 14 14 14 14 14 14 14 14 13 13 13 13 12 12 12 11 11 11 11 10 10 10 10 10 10 10 10 9 9 9 9 9 8 8 8 7 7 7 6 6 6 6 5 5 5 5 4 4 4 4 4 4 4 4 3 3 3 3 3 3 2 2 2 2
14 14 13 13 14 14 14 14 14 14 14 14 13 13 13 13 13 12 12 12 11 11 11 10 10 10 10 10 10 10 10 9 9 9 9 9 8 8 8 7 7 7 6 6 6 6 5 5 5 5 4 4 4 4 4 4 3 3 3 3 3 3 3 3 2 2 2 2 2
14 14 13 13 13 14 14 14 13 13 13 13 13 13 13 13 12 12 12 11 11 11 10 10 10 10 10 10 10 10 9 9 9 9 9 8 8 8 7 7 7 6 6 6 6 5 5 5 5 4 4 4 4 4 4 3 3 3 3 3 3 3 3 2 2 2 2 2 2
13 13 13 13 13 13 13 13 13 13 13 13 13 13 12 12 12 12 11 11 11 11 10 10 10 10 10 10 10 9 9 9 9 9 8 8 8 8 7 7 7 6 6 6 5 5 5 5 4 4 4 4 4 4 3 3 3 3 3 3 3 3 3 2 2 2 2 1 1
13 13 13 13 13 13 13 13 13 13 13 13 13 12 12 12 12 11 11 11 11 10 10 10 10 10 10 10 9 9 9 9 9 9 8 8 8 7 7 7 7 6 6 6 5 5 5 4 4 4 4 4 4 3 3 3 3 3 2 2 2 2 2 2 2 2 2 1 1
13 13 13 13 13 13 13 13 13 13 12 12 12 12 12 11 11 11 11 11 10 10 10 10 10 10 10 9 9 9 9 9 9 8 8 8 8 7 7 7 7 6 6 5 5 5 4 4 4 4 4 4 3 3 3 3 2 2 2 2 2 2 2 2 2 2 1 1 1
13 13 13 13 13 13 13 12 12 12 12 12 12 12 11 11 11 11 10 10 10 10 10 10 10 10 10 9 9 9 9 9 8 8 8 8 7 7 7 7 6 6 6 5 5 5 4 4 4 4 4 3 3 3 3 3 2 2 2 2 2 2 2 2 2 2 1 1 1
13 13 13 13 13 12 12 12 12 12 12 12 11 11 11 11 11 10 10 10 10 10 10 10 10 10 9 9 9 9 9 9 8 8 8 7 7 7 7 6 6 6 5 5 5 4 4 4 4 4 3 3 3 3 3 2 2 2 2 2 2 2 2 2 2 1 1 1 1
13 13 13 13 12 12 12 12 12 12 12 11 11 11 11 10 10 10 10 10 10 10 10 10 10 9 9 9 9 9 9 8 8 8 7 7 7 7 6 6 6 5 5 5 4 4 4 4 4 3 3 3 3 3 3 2 2 2 2 2 2 2 2 2 1 1 1 1 1
13 13 13 12 12 12 12 12 12 11 11 11 11 11 10 10 10 10 10 10 10 10 10 10 10 9 9 9 9 9 8 8 8 8 7 7 7 6 6 6 5 5 5 5 4 4 4 4 3 3 3 3 3 3 2 2 2 2 2 2 2 2 1 1 1 1 1 1 1
13 12 12 12 12 12 12 12 11 11 11 11 10 10 10 10 10 10 10 10 10 10 10 10 10 9 9 9 9 8 8 8 8 7 7 7 6 6 6 5 5 5 5 4 4 4 4 4 3 3 3 3 2 2 2 2 2 2 2 2 1 1 1 1 1 1 1 1 1
12 12 12 12 12 12 12 11 11 11 11 10 10 10 10 10 10 10 10 10 10 10 10 10 9 9 9 9 8 8 8 7 7 7 7 6 6 6 5 5 5 5 4 4 4 4 4 3 3 3 3 2 2 2 2 2 2 2 2 2 1 1 1 1 1 1 1 1 1
12 12 12 12 12 12 11 11 11 11 10 10 10 10 10 10 10 10 10 10 10 10 10 9 9 9 9 8 8 8 7 7 7 7 6 6 6 5 5 5 5 4 4 4 4 4 4 3 3 3 3 2 2 2 2 2 2 2 2 1 1 1 1 1 1 1 1 1 1
12 12 12 12 12 11 11 11 11 10 10 10 10 10 10 10 10 10 10 10 10 10 9 9 9 9 8 8 8 8 7 7 7 6 6 6 5 5 5 5 4 4 4 4 4 4 3 3 3 3 2 2 2 2 2 2 2 2 1 1 1 1 1 1 1 1 1 1 1
12 12 12 11 11 11 11 10 10 10 10 10 9 9 9 9 10 10 10 10 10 10 9 9 9 8 8 8 8 7 7 7 6 6 6 5 5 5 5 4 4 4 4 4 4 4 3 3 3 3 2 2 2 2 2 2 1 1 1 1 1 1 1 1 1 1 1 1 1
12 12 12 11 11 11 10 10 10 10 9 9 9 9 9 9 10 10 10 10 10 9 9 9 8 8 8 8 7 7 7 6 6 6 5 5 5 5 5 4 4 4 4 4 4 3 3 3 3 2 2 2 2 2 2 1 1 1 1 1 1 1 1 1 1 1 1 1 0
12 11 11 11 11 10 10 10 10 9 9 9 9 9 9 9 10 10 10 9 9 9 9 8 8 8 8 7 7 7 6 6 6 5 5 5 5 5 4 4 4 4 4 4 3 3 3 3 3 2 2 2 2 2 1 1 1 1 1 1 1 1 1 1 1 1 1 0 0
11 11 11 11 10 10 10 9 9 9 9 9 9 9 9 9 10 9 9 9 9 9 8 8 8 8 7 7 7 6 6 6 5 5 5 5 5 4 4 4 4 4 4 4 3 3 3 3 3 2 2 2 2 2 1 1 1 1 1 1 1 1 1 1 1 1 0 0 0
11 11 10 10 10 9 9 9 9 9 9 9 9 9 9 9 9 9 9 9 9 8 8 8 8 7 7 7 6 6 6 5 5 5 5 5 4 4 4 4 4 4 4 3 3 3 3 2 2 2 2 2 1 1 1 1 1 1 1 1 1 1 1 1 1 1 0 0 0
11 11 10 10 10 9 9 9 9 9 9 9 9 9 9 9 9 9 9 9 8 8 8 8 7 7 7 6 6 6 5 5 5 5 5 5 4 4 4 4 4 4 3 3 3 3 2 2 2 2 1 1 1 1 1 1 1 1 1 1 1 1 1 1 1 0 0 0 -0
11 10 10 10 10 9 9 9 9 9 9 9 9 9 9 9 9 9 9 8 8 8 8 7 7 7 6 6 6 5 5 5 5 5 4 4 4 4 4 4 4 3 3 3 3 3 2 2 2 1 1 1 1 1 1 1 1 1 1 1 1 1 1 0 0 0 0 -0 -0
10 10 10 10 10 9 9 9 9 9 9 9 9 9 9 9 9 9 8 8 8 8 7 7 7 6 6 6 5 5 5 5 5 4 4 4 4 4 4 4 4 3 3 3 3 2 2 2 2 1 1 1 1 1 1 1 1 1 1 1 1 1 0 0 0 0 -0 -0 -0
10 10 10 10 9 9 9 9 9 9 9 9 9 9 9 9 9 8 8 8 8 7 7 7 6 6 6 5 5 5 5 5 4 4 4 4 4 4 4 3 3 3 3 3 3 2 2 2 1 1 1 1 1 1 1 1 1 1 1 1 1 1 0 0 0 -0 -0 -0 -1
10 10 10 10 9 9 9 9 9 9 9 9 9 9 9 8 8 8 8 8 7 7 7 6 6 6 5 5 5 5 5 4 4 4 4 4 4 3 3 3 3 3 3 3 2 2 2 2 1 1 1 1 1 1 1 1 1 1 1 1 0 0 0 0 -0 -0 -0 -1 -1
10 10 10 9 9 9 9 9 9 9 9 9 9 8 8 8 8 8 8 7 7 7 6 6 6 5 5 5 5 5 4 4 4 4 4 4 3 3 3 3 3 3 3 3 2 2 2 2 1 1 1 1 1 1 1 1 1 1 1 0 0 0 0 0 -0 -0 -0 -1 -1
10 10 9 9 9 9 9 9 8 8 8 8 8 8 8 8 8 8 7 7 7 6 6 6 5 5 5 5 5 4 4 4 4 4 4 3 3 3 3 3 3 3 3 3 2 2 2 2 1 1 1 1 1 1 1 1 1 1 0 0 0 0 0 -0 -0 -0 -1 -1 -1
10 9 9 9 9 8 8 8 8 8 8 8 8 8 8 8 8 7 7 7 6 6 5 5 5 5 5 4 4 4 4 4 4 4 4 3 3 3 3 3 3 3 3 3 2 2 2 1 1 1 1 1 1 1 1 1 1 0 0 0 0 0 -0 -0 -0 -1 -1 -1 -1
9 9 9 8 8 8 8 8 8 8 8 8 8 8 8 8 7 7 7 6 6 5 5 5 5 5 4 4 4 4 4 4 4 4 3 3 3 3 3 3 3 3 3 3 2 2 2 1 1 1 1 1 1 1 1 0 0 0 0 0 -0 -0 -0 -0 -0 -1 -1 -1 -1
9 9 8 8 8 8 8 8 8 8 8 8 8 8 8 7 7 7 6 6 5 5 5 5 5 4 4 4 4 4 4 4 4 3 3 3 3 3 3 3 3 3 3 2 2 2 1 1 1 1 1 1 1 0 0 0 0 -0 -0 -0 -0 -0 -0 -0 -1 -1 -1 -1 -1
8 8 8 8 8 8 8 8 8 8 8 8 8 7 7 7 6 6 6 5 5 5 5 4 4 4 4 4 4 4 4 3 3 3 3 3 3 3 2 3 3 3 3 2 2 2 1 1 1 0 0 0 0 0 0 -0 -0 -0 -0 -0 -0 -0 -0 -0 -1 -1 -1 -1 -1
8 8 8 8 8 8 8 8 8 8 8 8 7 7 7 6 6 6 5 5 5 5 4 4 4 4 4 4 4 3 3 3 3 3 3 3 3 2 2 2 2 3 2 2 2 1 1 1 1 0 0 0 0 0 -0 -0 -0 -0 -1 -1 -1 -1 -1 -1 -1 -1 -1 -1 -1
8 8 8 8 8 8 8 8 8 8 7 7 7 7 6 6 5 5 5 5 4 4 4 4 4 4 4 4 3 3 3 3 3 3 3 3 2 2 2 2 2 2 2 2 2 1 1 1 1 0 0 0 -0 -0 -0 -0 -1 -1 -1 -1 -1 -1 -1 -1 -1 -1 -1 -1 -1
8 8 8 8 8 8 8 8 7 7 7 7 6 6 6 5 5 5 5 4 4 4 4 4 4 4 4 3 3 3 3 3 3 2 2 2 2 2 2 2 2 2 2 2 2 1 1 1 0 0 -0 -0 -0 -0 -1 -1 -1 -1 -1 -1 -1 -1 -1 -1 -1 -1 -1 -1 -1
8 8 8 8 8 8 8 7 7 7 7 6 6 6 5 5 5 5 4 4 4 4 4 4 4 4 3 3 3 3 3 3 2 2 2 2 2 2 2 1 1 2 2 2 1 1 1 1 0 -0 -0 -0 -0 -1 -1 -1 -1 -1 -1 -1 -1 -1 -1 -1 -1 -1 -1 -1 -1
8 8 8 8 8 8 7 7 7 7 6 6 5 5 5 5 5 4 4 4 4 4 4 4 3 3 3 3 3 3 3 2 2 2 2 2 2 2 1 1 1 1 2 2 1 1 1 0 0 -0 -0 -1 -1 -1 -1 -1 -1 -1 -1 -1 -1 -1 -1 -1 -1 -1 -1 -1 -1
8 8 8 8 7 7 7 7 6 6 6 5 5 5 5 5 4 4 4 4 4 4 3 3 3 3 3 3 2 2 2 2 2 2 2 2 2 2 1 1 1 1 1 1 1 1 1 1 0 0 -0 -1 -1 -1 -1 -1 -1 -1 -1 -1 -1 -1 -1 -1 -1 -1 -1 -1 -1
Height
841 842 843 844 845 845 846 847 848 849 850 851 852 853 853 854 855 855 856 857 857 858 858 859 859 859 860 860 860 860 860 860 860 860 860 860 860 859 859 859 859 858 858 858 857 857 857 856 856 855 855 854 854 853 853 853 852 852 851 850 850 849 849 848 848 848 847 847 846
840 841 842 843 844 844 845 846 847 848 849 850 851 852 852 853 853 854 855 855 856 857 857 858 858 858 858 859 859 859 859 859 859 859 859 859 859 858 858 858 858 857 857 857 856 856 856 855 855 854 854 853 853 853 852 852 851 850 850 849 849 848 848 847 847 846 846 845 845
839 840 841 842 843 843 844 845 846 847 848 849 850 851 851 852 853 853 854 854 855 856 856 856 857 857 858 858 858 858 858 858 858 858 858 858 858 857 857 857 857 856 856 856 855 855 854 854 854 853 853 852 852 851 851 850 850 849 849 848 848 847 847 846 846 845 845 844 843
838 839 840 840 841 842 843 843 845 846 847 848 849 850 850 851 851 852 853 853 854 854 855 855 856 856 856 857 857 857 857 857 857 857 857 857 857 856 856 856 855 855 855 854 854 854 853 853 853 852 852 851 851 850 850 849 849 848 848 847 847 846 846 845 844 844 843 843 842
837 838 838 839 840 841 842 843 844 845 846 847 848 848 849 850 850 851 852 852 853 853 854 854 854 855 855 855 855 856 856 856 856 856 856 856 855 855 855 855 854 854 854 853 853 853 852 852 851 851 851 850 850 849 849 848 848 847 847 846 846 845 844 844 843 843 842 842 841
836 837 838 839 840 840 841 842 843 844 845 846 847 847 848 848 849 850 850 851 851 852 853 853 853 853 854 854 854 854 854 854 855 855 854 854 854 854 854 853 853 853 853 852 852 851 851 851 850 850 849 849 848 848 848 847 847 846 845 845 844 844 843 843 842 841 841 840 840
835 836 837 838 839 839 840 841 842 843 844 845 846 846 847 847 848 848 849 850 850 851 851 852 852 852 853 853 853 853 853 853 853 853 853 853 853 853 853 852 852 852 851 851 851 850 850 849 849 849 848 848 847 847 847 846 846 845 844 844 843 843 842 841 841 840 839 839 838
834 835 836 837 838 838 839 840 841 842 843 844 844 845 846 846 847 847 848 848 849 849 850 850 851 851 851 852 852 852 852 852 852 852 852 852 852 852 851 851 851 850 850 850 849 849 848 848 848 848 847 847 846 846 845 845 844 844 843 842 842 841 841 840 839 838 838 837 837
833 834 835 836 837 838 838 839 840 841 842 843 843 844 845 845 846 846 847 847 848 848 849 849 849 850 850 850 851 851 851 851 851 851 851 851 851 850 850 850 849 849 849 848 848 848 847 847 847 846 846 845 845 844 844 843 843 842 842 841 840 839 839 838 838 837 836 836 835
832 833 834 835 836 837 838 838 839 840 841 842 843 843 844 844 844 845 845 846 847 847 848 848 848 849 849 849 849 849 850 850 850 850 849 849 849 849 849 848 848 848 848 847 847 846 846 845 845 845 844 844 843 843 843 842 842 841 840 839 839 838 837 837 836 836 835 834 833
830 831 833 833 834 835 837 838 838 839 840 841 842 842 843 843 843 844 844 845 845 846 846 847 847 848 848 848 848 848 848 848 848 848 848 848 848 848 847 847 847 847 846 846 845 845 844 844 844 843 843 843 842 842 841 841 840 839 838 838 837 836 836 835 835 834 833 833 832
829 830 831 833 833 834 835 836 837 838 839 840 840 841 841 842 842 843 843 843 844 845 845 845 846 846 847 847 847 847 847 847 847 847 847 847 846 846 846 846 845 845 845 844 844 843 843 843 842 842 841 841 841 840 840 839 838 838 837 836 836 835 834 833 833 833 832 831 830
828 829 830 831 832 833 834 835 836 837 838 838 839 840 840 841 841 842 842 843 843 843 844 844 845 845 845 846 846 846 846 846 846 846 845 845 845 845 844 844 844 844 843 843 843 842 842 841 841 840 840 839 839 839 838 838 837 836 835 834 834 833 832 832 831 831 830 830 829
827 828 829 830 831 832 833 834 835 836 837 838 838 838 839 840 840 841 841 842 842 842 843 843 843 844 844 844 844 844 844 844 844 844 844 844 843 843 843 843 843 842 842 842 841 841 840 840 839 839 838 838 838 837 837 836 835 835 834 833 832 831 831 830 830 829 829 828 827
826 827 828 829 830 831 832 833 834 835 836 836 837 838 838 838 839 839 840 840 841 841 842 842 843 843 843 843 843 843 843 843 843 843 843 842 842 842 842 842 841 841 840 840 839 839 838 838 838 837 837 836 836 835 835 835 834 833 833 832 831 830 829 828 828 828 827 826 825
824 826 827 828 829 830 831 832 833 833 834 835 836 837 837 838 838 838 839 839 840 840 841 841 841 842 842 842 842 842 842 842 842 841 841 841 841 840 840 840 840 839 839 838 838 837 837 837 836 836 835 835 834 834 833 833 832 832 831 830 829 828 828 827 827 826 825 825 824
823 824 825 826 828 828 829 831 832 833 833 834 835 835 836 837 837 838 838 838 839 839 839 840 840 840 840 840 840 840 840 840 840 840 840 839 839 839 839 838 838 838 837 837 836 836 835 835 835 834 834 833 833 832 832 831 831 830 829 828 828 827 826 826 825 824 824 823 822
822 823 824 825 826 827 828 829 830 831 832 833 834 834 835 836 836 837 837 837 838 838 838 839 839 839 839 839 839 839 839 839 838 838 838 838 838 838 837 837 836 836 835 835 834 834 834 833 833 833 832 832 831 831 830 829 829 828 828 827 826 825 824 824 823 823 822 821 820
820 821 823 824 825 826 828 828 829 830 831 832 833 834 834 835 835 836 836 836 837 837 837 838 838 838 838 838 838 838 837 837 837 837 837 837 836 836 836 835 835 834 833 833 833 833 832 832 832 831 831 830 829 829 828 828 827 826 826 825 824 823 823 822 822 821 820 819 819
819 820 822 823 824 826 827 828 829 830 831 831 832 833 833 834 834 834 835 835 836 836 836 836 836 836 836 836 836 836 836 836 836 835 835 835 835 834 834 833 833 833 832 832 831 831 830 830 830 829 829 828 828 827 827 826 825 824 823 823 822 821 821 820 819 819 818 818 817
818 819 821 822 823 825 826 827 828 829 830 831 831 832 832 833 833 833 834 834 834 835 835 835 835 835 835 835 835 834 834 834 834 834 834 833 833 833 832 832 831 831 830 830 830 829 829 828 828 828 827 827 826 825 825 824 823 822 822 821 820 819 819 818 818 817 816 816 815
817 819 820 822 823 824 825 827 828 828 829 830 830 831 831 832 832 832 833 833 833 833 833 833 833 833 833 833 833 833 833 833 833 833 832 832 832 831 831 830 829 829 828 828 828 828 827 827 826 826 825 825 824 823 823 822 821 820 819 819 818 817 817 816 816 815 814 814 813
817 818 820 821 823 824 825 826 827 828 828 829 829 830 830 830 831 831 832 832 832 832 832 832 832 832 832 832 832 832 832 832 831 831 831 830 830 829 829 828 828 827 827 827 826 826 826 825 824 824 823 823 822 821 821 820 819 818 818 817 816 815 815 814 813 813 813 812 811
817 818 819 821 822 823 824 825 826 827 827 828 828 829 829 829 830 830 830 830 831 831 831 831 831 831 831 831 830 830 830 830 830 829 829 829 828 828 827 827 826 826 825 825 825 824 824 823 822 822 821 821 820 819 819 818 818 817 816 815 814 813 813 812 812 811 811 810 809
816 818 819 820 821 822 823 824 825 826 826 827 827 828 828 828 829 829 829 829 829 829 829 829 829 829 829 829 829 829 829 828 828 828 827 827 827 826 826 825 825 824 824 823 823 823 822 821 821 820 819 819 818 818 817 816 816 815 814 813 813 812 811 810 810 809 809 808 808
816 817 818 819 821 822 823 823 824 825 825 826 826 827 827 827 828 828 828 828 828 828 828 828 828 828 828 828 828 827 827 827 827 826 826 825 825 824 824 823 823 823 822 822 821 821 820 820 819 819 818 818 817 816 815 814 814 813 813 812 811 810 809 808 808 807 807 806 806
815 816 818 819 820 821 822 823 823 824 824 825 825 826 826 826 827 827 827 827 827 827 827 827 827 827 826 826 826 826 825 825 825 824 824 823 823 823 822 822 821 821 820 820 819 819 818 818 818 818 817 816 815 815 814 813 812 811 811 810 809 808 808 807 806 805 805 804 804
815 816 817 818 819 820 821 822 823 823 823 824 824 825 825 825 825 825 825 825 825 825 825 825 825 825 825 825 824 824 824 823 823 823 822 822 821 821 820 820 819 819 818 818 818 817 817 816 816 815 815 815 814 813 812 811 810 809 809 808 807 806 806 805 804 803 803 802 802
814 815 817 818 818 819 820 821 822 822 823 823 823 823 824 824 824 824 824 824 824 824 824 824 823 823 823 823 823 823 822 822 821 821 820 820 819 819 818 818 817 817 817 816 816 815 815 814 814 813 813 813 812 811 810 809 808 808 807 806 805 804 804 803 802 802 801 800 800
814 815 816 817 818 819 819 820 821 821 822 822 822 823 823 823 823 823 823 823 823 823 822 822 822 822 822 821 821 821 820 820 819 819 818 818 817 817 816 816 815 815 815 814 814 813 813 812 812 811 811 811 810 809 808 807 806 806 805 804 803 803 802 801 800 800 799 798 798
813 814 815 816 817 818 819 819 820 820 821 821 821 821 821 821 821 821 821 821 821 821 821 821 820 820 820 819 819 819 818 818 818 817 817 816 815 815 814 814 813 813 813 813 812 811 811 810 810 809 809 809 808 808 806 805 804 803 803 802 801 800 800 799 798 798 797 797 796
813 814 815 816 817 817 818 818 819 819 819 820 820 820 820 820 820 820 820 819 819 819 819 819 819 818 818 818 817 817 817 816 816 815 815 814 813 813 812 812 811 811 811 810 810 809 809 808 808 808 807 807 806 805 804 803 802 801 800 799 799 798 798 797 796 796 795 794 794
813 813 814 815 816 817 817 818 818 818 818 818 818 818 818 818 818 818 818 818 818 818 818 817 817 817 816 816 815 815 815 814 814 813 813 812 812 811 810 810 809 809 808 808 808 807 807 806 806 806 805 805 804 803 802 801 800 799 798 797 796 796 795 795 794 793 793 793 792
812 813 814 815 816 816 817 817 817 817 817 817 817 817 817 817 817 817 817 816 816 816 816 815 815 815 814 814 814 813 813 812 812 812 811 810 810 809 808 808 807 807 807 806 806 805 805 804 804 803 803 803 802 801 800 798 798 797 796 795 794 793 793 792 792 791 791 790 790
812 813 813 814 815 815 816 816 816 816 816 816 816 816 815 815 815 815 815 815 815 814 814 814 813 813 813 812 812 812 811 810 810 809 809 808 808 807 806 806 805 805 805 804 804 803 803 802 802 801 801 800 799 798 797 796 795 794 793 792 791 791 790 790 789 789 788 788 788
812 813 813 814 814 814 814 814 814 814 814 814 814 814 814 814 813 813 813 813 813 813 812 812 812 811 811 810 810 810 809 809 808 808 807 807 806 805 804 803 803 803 803 803 802 801 801 800 800 799 799 798 797 796 795 794 793 792 791 790 789 788 788 787 787 786 786 786 785
811 812 813 813 813 813 813 813 813 813 813 813 813 813 812 812 812 812 812 812 811 811 810 810 810 809 809 808 808 808 807 807 806 806 805 805 804 803 802 801 801 800 800 800 800 799 798 798 798 797 797 796 795 793 792 791 790 789 788 787 786 785 785 785 784 784 783 783 783
811 811 812 812 812 812 812 812 812 812 811 811 811 811 811 811 810 810 810 810 809 809 808 808 808 808 807 807 806 806 805 805 804 804 803 803 802 801 800 799 798 798 798 798 797 797 796 796 795 795 794 794 793 791 790 789 788 787 786 785 784 783 783 782 782 781 781 780 780
810 810 811 811 811 811 811 810 810 810 810 810 810 809 809 809 809 809 808 808 808 807 807 806 806 805 805 805 804 803 803 803 802 802 801 800 800 799 799 798 796 795 795 795 795 794 794 793 793 793 792 792 790 789 788 787 785 784 783 783 782 781 780 780 779 779 778 778 778
809 809 809 809 809 809 809 809 809 809 808 808 808 808 808 808 807 807 807 806 806 806 805 804 804 804 803 803 802 801 801 800 800 800 799 798 798 797 797 796 794 793 793 793 792 792 791 791 790 790 789 789 788 787 786 785 783 782 781 780 780 779 778 777 777 777 776 775 775
808 808 808 808 808 808 808 808 807 807 807 807 807 806 806 806 805 805 805 805 804 804 803 803 802 802 802 801 800 799 798 798 798 798 797 796 796 795 794 793 792 791 790 790 790 789 789 788 788 787 787 786 785 784 783 783 781 780 779 778 778 777 776 775 775 774 774 773 773
Wind_Speed
17 18 18 19 19 18 18 17 16 16 15 15 14 13 13 12 11 11 11 10 10 9 9 9 9 8 8 7 6 6 6 6 6 7 7 8 9 10 11 12 13 14 14 15 15 16 16 16 16 16 16 16 16 15 15 15 15 15 15 14 14 14 15 15 15 15 15 15 15
18 18 18 18 18 19 18 18 17 16 15 15 14 13 13 12 11 11 11 10 10 10 9 9 9 8 7 7 7 6 6 7 7 7 8 9 10 11 12 13 14 14 15 15 15 15 15 16 16 15 15 16 15 15 14 14 14 14 14 14 15 15 15 15 16 16 16 16 16
19 19 19 19 19 20 20 19 18 17 16 15 14 13 12 12 11 11 10 10 10 10 9 9 9 8 8 7 7 7 7 7 8 8 9 10 11 12 13 13 14 14 14 14 14 14 15 15 15 15 15 15 15 14 14 14 15 15 15 15 15 15 16 16 16 16 16 16 16
20 20 20 21 21 21 20 19 19 18 17 16 14 13 12 12 11 11 10 10 10 10 10 9 9 8 8 8 7 7 8 8 8 9 10 11 11 12 13 14 14 14 14 14 14 14 14 15 15 15 14 14 14 14 14 14 15 15 15 15 16 16 16 16 17 17 17 17 17
20 21 21 21 21 20 20 19 19 18 17 16 14 13 13 12 11 11 10 10 10 10 10 10 9 9 8 8 8 8 8 9 9 10 11 11 12 13 13 13 13 13 13 13 13 13 14 14 14 14 14 14 14 14 14 15 15 15 16 16 16 16 17 17 17 17 17 18 18
21 21 21 21 21 20 20 19 18 18 17 16 14 13 13 12 11 11 11 11 11 10 10 10 9 9 9 9 9 9 9 10 10 11 11 12 12 13 13 13 13 13 13 13 13 13 14 14 14 14 14 15 14 15 15 15 15 16 16 17 17 17 17 17 18 18 18 18 18
21 22 22 22 22 21 20 19 18 17 16 15 14 13 13 12 12 11 11 11 11 11 11 10 10 10 9 9 9 9 10 10 11 11 12 12 13 13 13 13 13 13 13 13 13 14 14 14 14 15 15 15 15 15 15 15 15 16 17 17 17 17 18 18 18 18 18 18 18
22 22 23 23 22 21 20 20 18 17 16 15 14 13 13 12 12 12 12 12 12 12 11 11 10 10 10 10 10 10 10 11 11 12 13 13 13 13 13 13 13 13 13 13 14 14 14 15 15 15 16 16 16 16 15 15 15 16 17 17 18 18 18 18 18 18 18 18 18
23 23 23 23 22 22 21 20 19 17 16 15 14 13 13 12 12 12 13 13 12 12 11 11 11 10 10 10 11 11 11 12 12 13 13 13 13 14 14 14 14 14 14 14 14 15 15 16 16 16 16 16 16 16 16 16 16 16 17 18 18 19 19 19 19 18 18 18 18
24 24 24 24 23 22 21 19 18 17 16 15 14 14 13 13 13 13 13 13 12 12 12 11 11 11 11 11 11 12 12 12 13 13 14 14 14 14 14 15 15 15 15 15 15 15 16 16 16 17 17 16 16 16 16 16 16 17 17 18 19 19 20 19 19 18 17 17 17
25 25 25 24 23 22 21 20 18 17 16 15 15 15 14 14 14 14 13 13 13 12 12 12 12 11 11 12 12 12 13 13 14 14 14 14 15 15 15 16 16 16 15 16 16 16 16 17 17 17 17 17 16 16 16 16 16 17 18 18 19 19 20 20 19 18 17 17 17
25 25 25 24 23 22 21 20 19 18 17 16 16 16 15 15 15 14 14 13 13 13 12 12 12 12 12 12 12 13 13 14 14 14 14 15 15 16 16 16 16 16 16 16 16 16 17 17 17 17 17 17 17 16 16 16 17 18 18 19 19 19 20 19 18 17 17 17 18
25 25 25 25 24 23 22 20 19 18 17 17 17 16 16 15 15 14 14 13 13 13 13 12 12 12 12 13 13 14 14 14 14 15 15 15 16 16 16 16 16 16 16 16 16 17 17 17 17 17 17 17 17 17 16 17 17 18 19 19 19 19 19 19 18 17 17 17 18
26 26 26 25 24 23 22 21 20 19 18 18 17 17 16 16 15 15 14 13 13 13 13 12 12 12 13 13 14 14 14 15 15 15 15 16 16 16 16 16 16 16 16 16 17 17 17 17 17 17 17 17 17 17 17 17 17 18 19 19 19 19 19 19 18 18 18 18 19
26 26 26 25 25 23 22 21 20 19 19 18 18 17 17 16 15 15 14 14 13 13 13 12 12 13 13 14 14 15 15 15 15 15 16 16 16 16 16 16 16 16 17 17 17 17 17 17 17 17 17 17 18 18 18 18 18 18 18 18 18 19 18 18 18 18 19 20 21
27 27 27 26 25 24 22 21 21 20 19 19 18 17 17 16 15 15 14 14 13 13 13 13 13 14 14 14 15 15 15 15 15 16 16 16 16 16 16 16 16 17 17 17 17 17 17 17 17 17 17 17 18 18 18 18 18 18 18 18 18 18 18 18 19 19 20 20 21
28 28 27 26 25 24 23 22 21 20 19 19 18 17 17 16 15 15 14 13 13 13 13 13 14 14 14 15 15 15 14 15 15 16 16 16 16 16 16 17 17 17 17 17 18 18 18 17 17 17 17 17 18 18 18 18 18 18 17 17 17 18 18 19 19 20 21 21 22
28 28 28 27 25 24 23 22 21 20 19 19 18 17 16 16 15 14 14 13 13 13 13 14 14 15 15 15 15 15 15 15 15 15 16 16 16 16 17 17 17 17 17 18 18 18 18 18 17 17 17 18 18 18 18 18 17 17 17 17 17 18 19 19 20 21 21 22 22
29 29 28 27 25 24 22 21 21 20 19 18 17 16 16 15 14 14 13 13 13 13 14 14 15 15 15 15 15 15 15 15 15 15 16 16 16 16 17 17 17 17 17 18 18 18 18 18 18 18 18 18 18 18 18 17 17 17 17 18 18 19 20 20 21 21 22 22 23
30 29 28 26 25 23 22 21 20 19 18 17 16 16 15 15 14 14 13 13 14 14 14 15 15 15 15 15 15 15 15 16 15 15 16 16 16 17 17 17 17 18 18 18 18 18 18 18 18 18 18 18 18 18 18 17 17 17 18 19 19 20 21 21 22 22 22 23 23
30 29 27 25 24 22 21 20 19 18 17 16 16 15 14 14 14 13 13 14 14 14 15 15 16 16 16 15 15 15 15 16 15 15 16 16 17 17 17 17 18 18 18 18 18 18 18 18 18 18 18 18 18 18 17 17 17 18 19 20 21 22 22 22 23 23 23 23 23
30 28 26 24 22 21 20 19 18 17 16 15 15 14 14 13 13 13 14 14 15 15 15 16 16 16 16 16 15 15 15 16 16 16 16 17 17 17 17 18 18 18 18 18 18 18 18 18 18 19 19 18 18 17 17 18 19 20 21 21 22 23 23 23 23 23 23 23 23
29 26 24 23 21 20 19 18 17 16 15 14 14 13 13 13 13 14 14 14 15 15 16 16 16 15 15 15 15 15 15 16 16 16 17 17 17 17 17 18 18 18 18 18 18 18 18 18 19 19 19 18 18 18 18 19 20 21 22 23 23 24 24 24 24 24 24 23 23
27 25 24 22 21 20 19 17 16 15 14 14 13 13 13 13 13 14 14 15 15 15 15 15 15 15 15 15 15 16 16 16 16 17 17 17 17 18 18 18 18 18 18 18 18 18 18 19 19 19 19 18 18 19 19 20 21 22 22 23 24 24 25 25 25 24 24 24 23
26 24 23 22 21 19 18 17 15 14 14 13 13 13 13 13 14 14 15 15 15 15 15 15 15 15 15 15 15 16 16 16 16 17 17 18 18 18 18 18 19 19 18 18 18 18 18 18 18 18 18 18 19 20 21 21 22 22 23 23 24 24 25 25 25 25 24 24 23
25 24 23 22 20 18 17 16 14 14 13 13 13 13 13 14 14 15 15 15 15 15 15 15 15 15 15 15 15 16 16 16 17 17 18 18 18 18 19 19 19 19 19 18 18 18 18 17 17 16 17 18 19 21 21 22 22 22 23 23 24 24 25 25 25 25 25 24 24
25 24 22 21 19 17 16 15 14 13 13 13 13 13 14 14 14 15 15 15 15 15 15 15 15 15 15 15 16 16 16 17 17 18 18 18 19 19 19 19 19 19 19 19 18 18 18 18 17 17 17 18 19 21 21 22 22 23 23 23 23 24 24 25 25 25 25 25 24
24 23 21 20 18 17 15 15 14 13 13 13 13 14 14 14 15 15 15 15 15 15 15 15 15 15 15 16 16 16 17 17 18 18 18 19 19 19 19 20 20 20 19 19 19 19 18 18 18 18 17 18 19 20 21 22 22 23 23 23 24 24 24 24 25 24 24 25 25
24 22 20 19 17 16 15 14 14 13 13 13 14 14 14 15 15 15 15 16 16 15 15 15 15 15 16 16 16 17 17 18 18 18 19 19 19 19 20 20 20 20 20 19 19 19 19 19 19 19 18 18 18 19 21 21 22 23 23 23 24 24 24 25 24 24 24 24 24
22 21 19 18 17 16 15 14 14 13 13 14 14 14 14 15 15 15 16 16 15 15 15 15 15 16 16 16 17 17 18 18 18 19 19 19 20 20 20 20 20 21 21 20 20 20 20 20 19 19 19 19 19 19 20 22 22 23 23 24 24 25 25 25 25 25 25 25 24
21 20 19 18 17 15 15 14 13 13 13 14 14 14 15 15 15 16 16 15 15 15 15 15 15 16 16 17 17 18 18 19 19 19 19 19 20 20 20 21 21 21 21 21 21 21 21 20 20 19 19 19 19 19 20 22 22 23 24 25 25 25 25 26 26 26 25 24 24
20 19 18 17 16 15 14 13 13 13 13 14 14 14 15 15 15 16 15 15 15 15 15 15 16 16 17 17 18 18 19 19 19 19 19 20 20 20 21 21 22 22 22 22 22 21 21 21 20 20 20 20 20 20 21 22 23 24 25 25 26 26 26 26 26 25 25 24 23
20 19 17 16 15 13 13 13 13 13 13 13 14 15 15 16 16 16 15 15 15 15 15 16 16 16 17 18 18 19 19 20 20 20 20 20 20 21 21 22 23 23 23 23 22 22 22 21 20 20 20 21 20 21 21 22 23 24 25 26 27 27 27 27 26 25 24 24 23
19 18 16 15 13 13 12 12 13 13 13 14 14 15 16 16 16 15 15 15 15 15 15 16 16 17 18 18 19 19 20 20 20 20 20 20 20 21 22 23 24 24 24 23 23 22 22 22 21 21 21 21 21 21 22 23 24 25 26 27 27 27 27 27 26 25 24 24 23
18 16 14 13 13 12 12 12 13 13 14 15 15 16 16 16 15 15 15 14 14 15 16 16 17 17 18 19 19 19 20 20 20 20 20 20 21 21 22 24 24 24 24 23 23 23 23 23 22 22 22 21 21 21 23 24 25 26 26 27 27 27 27 26 25 24 24 23 24
16 14 13 12 12 12 12 13 13 14 15 16 16 16 16 15 15 14 14 14 15 15 16 17 17 18 19 19 19 20 20 20 20 21 21 21 21 22 23 24 25 25 25 24 24 24 24 24 23 22 22 21 21 22 24 24 25 26 27 27 28 27 27 26 25 24 24 24 24
13 12 12 12 12 12 13 13 14 15 16 16 16 16 15 15 14 14 14 14 15 16 17 18 18 19 19 20 20 20 20 20 20 21 21 22 22 23 24 25 26 26 25 25 25 25 25 24 23 22 21 21 22 23 24 25 25 26 26 27 27 27 26 26 25 25 24 24 24
12 12 12 12 12 13 14 14 15 16 16 16 16 15 15 15 15 15 15 15 16 17 18 19 19 20 20 20 20 21 21 20 21 21 22 22 23 23 24 25 26 27 26 26 26 25 25 25 24 22 22 22 22 23 24 25 25 25 26 26 26 27 26 26 25 25 25 25 25
11 11 12 12 13 14 15 15 16 16 16 16 15 15 15 15 15 15 16 16 17 18 19 19 20 20 21 20 21 21 21 21 21 22 22 23 23 24 24 26 27 28 27 27 26 26 26 25 24 23 22 22 22 23 23 24 24 25 25 25 25 25 25 25 25 26 26 26 25
11 12 12 13 14 15 16 16 16 16 16 15 15 15 15 15 16 16 17 17 18 18 19 20 21 21 21 20 21 22 22 23 23 23 23 23 24 24 25 26 27 28 28 28 27 27 26 26 25 25 23 22 22 23 23 23 23 23 23 23 23 23 23 24 24 24 25 25 25
11 12 13 14 15 16 16 16 16 16 16 15 15 16 16 17 17 17 18 18 19 19 20 20 21 21 21 21 21 22 23 24 24 24 24 24 24 24 25 26 27 28 29 28 28 28 27 27 26 25 24 22 22 22 22 22 23 23 22 22 22 22 23 23 23 23 23 24 25
Wind_Direction
199 196 195 195 195 193 193 194 194 196 197 198 199 203 208 213 218 222 226 227 225 223 223 224 226 229 234 240 245 250 256 262 267 272 276 281 285 288 290 293 295 297 299 301 303 306 308 310 312 314 314 315 315 316 316 315 316 316 315 314 313 313 312 312 312 312 312 312 312
195 193 192 193 193 192 192 192 193 194 195 199 203 207 212 218 221 224 226 226 225 224 224 225 228 230 234 238 243 249 254 261 266 271 276 280 283 287 289 292 294 296 299 302 304 306 308 310 312 313 314 314 315 316 315 315 314 314 313 312 311 311 310 310 309 309 310 310 309
193 191 190 191 191 190 191 191 192 193 195 198 203 208 214 219 223 226 226 225 225 225 225 225 227 230 233 238 243 248 253 260 266 271 276 280 283 286 289 291 294 297 299 302 304 306 308 310 311 313 313 314 315 315 315 314 314 313 311 309 309 308 308 307 307 307 307 307 306
192 190 189 190 191 192 193 194 194 195 197 200 204 209 214 219 222 225 225 225 224 223 223 224 226 230 233 239 244 249 254 260 265 271 276 279 282 285 288 291 294 297 300 302 304 306 308 310 311 313 314 315 316 316 315 314 312 311 309 308 307 306 305 304 304 305 305 304 304
192 190 190 190 192 195 196 197 197 198 200 203 206 210 214 218 221 224 225 224 221 221 222 224 226 231 235 240 245 251 256 261 266 271 275 278 282 285 288 291 294 297 300 302 305 307 308 310 312 314 314 315 315 315 314 313 311 309 307 305 305 303 303 302 302 302 302 302 301
192 190 190 191 194 196 197 198 200 201 203 206 209 212 215 219 221 222 222 220 219 220 222 224 227 232 237 242 246 252 257 263 267 271 274 278 281 285 288 291 294 297 300 303 305 307 309 310 312 313 314 314 314 314 312 311 309 306 304 303 302 302 301 300 300 300 300 300 300
192 190 190 192 194 196 198 199 200 203 205 208 211 215 217 220 221 220 219 219 219 220 221 224 228 232 238 243 248 253 258 263 267 271 275 278 282 285 288 291 294 297 299 302 304 306 308 309 311 312 312 312 313 312 310 309 307 305 303 302 301 301 300 299 299 299 299 299 300
193 192 191 193 195 197 199 200 202 204 207 210 213 216 219 220 219 218 217 217 217 218 222 225 229 234 239 244 249 254 259 263 268 272 275 279 282 285 288 291 294 296 299 301 303 305 307 308 309 310 310 310 311 310 308 307 305 303 302 301 301 300 300 299 299 299 299 299 300
193 193 193 194 196 198 200 202 204 206 209 212 214 216 217 217 217 216 215 214 216 220 223 226 230 234 240 245 250 255 260 264 268 272 276 280 283 286 288 291 293 296 298 300 302 303 305 306 307 308 308 308 308 307 306 305 304 302 301 301 300 300 300 299 299 299 299 299 300
194 193 194 195 196 198 200 202 205 207 210 212 213 213 213 214 214 214 214 215 218 221 223 226 231 236 240 246 251 256 261 265 270 274 277 281 283 286 288 290 293 295 298 299 301 302 303 304 305 305 306 306 305 305 304 303 302 301 301 300 301 300 300 300 300 300 300 300 300
195 195 195 196 197 199 200 202 204 206 209 211 211 211 211 212 212 213 214 216 218 220 223 228 232 237 242 248 253 258 263 267 272 275 279 281 284 286 288 291 293 295 297 298 300 300 301 302 302 303 303 303 303 303 303 302 302 301 301 300 300 300 300 300 301 301 302 302 301
196 196 197 198 199 200 201 202 204 205 207 209 210 210 210 210 211 212 214 216 218 221 225 230 234 239 245 251 256 261 266 269 273 276 279 282 284 286 289 291 293 295 297 298 298 299 299 300 300 301 302 302 302 302 302 302 301 301 301 301 301 300 300 301 302 303 303 303 302
197 198 198 199 200 201 201 203 204 206 207 208 209 209 209 210 211 212 214 217 220 223 228 232 237 242 248 254 259 264 267 271 274 277 280 282 284 286 289 291 293 295 296 297 297 297 298 298 299 300 300 301 301 301 301 301 301 301 301 301 301 300 300 301 303 304 304 303 303
199 199 199 200 200 201 202 203 204 206 207 207 208 208 208 209 210 213 215 218 222 225 230 235 241 246 252 257 261 265 269 272 276 278 280 282 284 287 289 291 293 294 295 295 296 296 297 297 298 298 299 300 300 300 301 300 300 300 300 300 299 299 300 301 303 304 304 304 303
199 200 200 200 200 201 202 203 205 206 206 206 207 208 208 209 211 214 217 220 224 228 234 239 245 250 255 259 263 267 270 273 276 277 279 282 284 287 289 291 293 294 294 295 295 296 296 297 297 297 298 298 299 299 300 300 299 299 298 298 298 299 300 301 303 304 304 305 305
200 200 200 200 200 201 202 203 205 206 206 206 207 208 208 210 213 215 218 222 227 232 238 243 249 254 258 261 265 268 271 273 276 277 280 282 285 288 290 292 293 294 295 295 296 296 297 297 297 297 297 297 298 298 299 299 298 297 297 297 297 298 299 301 303 304 304 304 304
200 199 199 200 201 201 203 203 204 205 205 205 206 208 209 211 215 218 221 225 231 236 242 248 252 257 260 263 266 268 271 273 275 278 280 283 286 289 291 293 294 295 295 296 296 297 297 297 297 296 296 296 296 297 298 298 297 297 296 296 296 297 299 301 302 303 304 303 303
199 199 199 200 201 202 203 203 204 204 204 205 206 209 211 214 217 220 225 230 235 241 246 252 256 259 262 264 266 269 271 273 276 279 282 285 288 291 293 295 296 296 296 296 297 297 297 297 296 296 295 295 296 296 296 297 296 296 296 296 297 298 299 301 302 303 303 303 302
198 198 199 200 201 202 203 203 203 203 204 205 208 210 213 216 220 224 229 234 239 245 250 254 257 260 262 264 267 269 272 275 278 281 284 287 290 293 295 296 297 297 297 296 297 297 297 296 295 295 295 295 295 296 296 296 296 296 297 298 299 299 300 301 302 303 303 303 303
198 198 199 199 200 201 201 201 202 203 204 206 209 212 216 219 224 229 234 240 244 249 252 256 258 260 262 265 267 270 274 276 280 283 287 290 293 295 297 297 297 297 297 297 296 296 295 295 295 294 295 295 295 296 296 297 297 298 299 299 300 300 301 302 303 303 303 303 303
198 198 198 199 199 199 199 200 201 202 205 208 211 215 219 224 229 234 239 244 249 252 255 258 259 261 263 266 269 272 275 279 282 286 290 293 295 297 297 298 297 297 296 296 296 295 294 294 294 294 295 295 296 297 298 298 299 300 300 300 300 300 301 302 302 303 303 303 303
197 197 197 196 196 196 197 198 200 202 206 210 214 218 223 228 234 239 244 248 252 256 258 260 261 262 265 267 270 273 277 280 284 288 292 295 297 298 298 297 297 296 296 295 294 294 294 293 294 295 296 297 298 299 300 300 301 301 300 300 300 300 300 301 301 301 301 301 301
195 194 193 192 193 194 195 198 200 203 207 212 217 222 227 233 239 244 248 252 255 258 259 261 262 264 266 269 271 274 278 282 287 291 294 297 298 298 297 297 296 295 294 294 294 293 293 294 295 297 298 300 301 301 301 301 300 299 299 299 299 299 299 299 300 300 300 300 299
192 190 189 189 190 192 195 198 201 205 210 215 221 227 232 239 244 249 252 256 258 260 261 262 264 266 267 270 272 276 280 285 289 293 296 297 298 297 297 295 295 294 293 293 293 293 294 296 298 300 301 302 302 301 300 298 297 296 296 296 297 297 297 297 297 298 297 297 297
189 188 187 188 190 192 196 199 203 208 214 219 226 232 238 244 249 253 256 259 261 262 263 264 265 266 268 270 274 277 282 287 291 295 297 298 298 297 296 294 293 293 292 292 292 293 295 297 298 299 300 299 297 296 295 293 292 292 293 293 294 295 295 295 295 295 295 295 295
186 186 187 189 191 194 198 202 207 213 219 225 232 238 243 248 253 257 259 261 263 263 264 264 265 266 268 271 275 279 284 289 293 295 297 298 297 297 295 294 293 293 292 292 292 293 295 297 296 295 293 291 290 290 290 289 289 289 290 290 291 292 292 293 293 293 293 294 294
185 186 188 191 193 197 201 206 212 218 225 231 237 243 248 252 256 259 262 263 264 264 265 264 265 266 269 272 276 281 286 291 294 296 297 297 296 296 295 294 293 293 292 292 292 294 296 297 296 293 290 288 288 288 288 288 288 288 288 288 289 289 289 290 291 292 293 293 295
185 188 190 193 196 200 206 211 217 224 230 237 242 247 252 256 260 262 264 265 265 265 264 264 265 266 270 274 278 283 288 292 295 296 297 297 296 295 295 294 293 293 293 293 293 294 296 296 295 293 291 289 289 288 287 287 287 287 287 287 287 287 288 288 289 290 291 293 295
188 190 193 196 200 205 210 216 222 229 235 241 246 251 256 260 263 265 266 267 266 265 264 264 265 268 271 275 280 285 289 293 295 296 296 296 295 295 294 294 293 293 292 292 293 293 295 295 295 294 292 290 288 287 286 286 285 285 285 285 285 286 286 287 288 289 290 292 294
190 193 196 200 204 209 214 220 226 233 239 245 250 255 259 263 266 268 268 268 266 265 264 265 267 269 273 278 283 287 291 294 295 296 296 296 295 295 294 294 293 292 292 292 292 293 294 295 294 294 292 289 287 286 285 284 284 283 283 283 284 284 285 286 287 288 290 292 294
193 196 200 203 208 212 217 224 230 237 243 249 255 260 264 267 269 270 270 268 266 265 265 266 269 272 277 281 286 289 292 294 296 296 296 296 295 295 294 294 293 292 292 292 292 292 294 294 294 292 290 288 287 285 283 283 282 282 282 282 282 283 284 285 286 287 289 291 293
195 198 202 206 210 215 221 227 235 242 248 254 260 265 269 271 272 272 270 268 266 266 266 269 272 277 281 285 288 291 293 295 296 296 296 296 296 295 294 293 292 292 292 292 292 293 294 294 293 290 288 287 286 284 283 282 281 281 280 280 281 281 282 283 285 286 288 290 291
197 200 204 208 212 218 225 233 241 248 255 261 267 271 274 275 275 273 270 268 266 267 269 272 276 281 284 287 290 292 294 295 296 297 297 296 295 294 293 292 292 292 292 293 293 293 294 293 291 289 287 286 286 284 282 281 280 279 279 279 279 280 281 282 283 285 286 288 289
199 202 206 211 217 224 232 240 248 255 262 268 272 275 276 276 275 272 270 268 268 270 273 276 279 283 286 289 291 293 295 296 296 297 297 296 295 293 292 291 291 292 293 293 293 293 293 291 289 288 287 287 285 284 282 280 279 279 279 279 279 279 280 281 282 283 285 287 288
201 205 210 216 224 232 240 248 255 263 269 273 276 278 278 276 274 272 270 270 271 273 276 279 282 285 288 290 292 293 295 296 296 296 296 295 293 292 290 290 291 292 293 293 293 292 292 291 289 288 287 286 284 282 281 280 280 279 279 279 279 280 280 281 282 283 284 286 287
204 209 216 225 232 241 248 256 264 269 274 276 278 278 277 275 273 272 272 273 275 277 280 282 285 287 289 291 292 293 294 295 295 295 294 293 292 290 290 290 291 292 293 292 292 291 291 290 289 288 287 285 283 281 281 280 280 280 280 280 280 280 280 281 282 283 284 286 287
209 217 225 234 242 250 257 264 270 274 276 278 278 277 276 274 273 273 274 276 278 281 283 285 287 288 290 292 293 294 294 294 294 293 293 292 291 290 290 290 291 292 292 292 292 291 291 290 289 288 286 284 282 281 281 281 281 280 280 280 280 280 281 282 283 285 285 286 287
218 226 235 243 252 259 266 271 274 276 277 278 277 276 275 274 275 276 278 280 282 284 286 287 288 290 292 293 294 294 293 292 292 291 291 291 290 290 290 290 291 292 292 292 292 292 292 291 289 287 284 282 282 281 281 281 280 280 280 280 280 281 282 283 285 286 287 287 288
229 238 246 255 262 267 271 274 276 277 277 277 277 276 276 277 278 280 282 283 285 286 287 289 290 291 292 293 292 292 291 291 290 289 289 289 289 289 289 289 290 291 292 293 293 293 292 291 289 286 284 281 280 280 280 279 279 279 279 279 280 281 282 283 285 286 287 288 289
242 251 259 265 269 273 275 276 277 277 278 277 277 278 278 280 281 283 284 286 287 287 288 288 290 291 291 291 290 289 289 289 289 288 288 288 289 289 288 288 289 290 291 292 293 292 292 291 289 287 284 281 280 279 279 279 278 278 277 277 278 279 281 282 284 284 286 287 288
256 263 268 272 274 276 276 277 277 278 278 278 279 280 281 283 284 285 286 286 287 287 287 288 288 289 289 288 286 286 286 287 287 288 288 288 288 288 287 287 288 289 291 291 292 292 291 291 290 288 286 282 279 278 278 277 277 276 275 275 276 278 280 282 283 283 283 284 286